Content
SEND FEEDBACK

Daily
Averages
Monthly
Summary
United States of America

TUCSON, ARIZONA


Home > North America > United States > Arizona
Elevation: 2584 feet     Latitude: 32 08N     Longitude: 110 56W

WEATHER
 
SELECT A DAY
Number of Records: 106,736;   Date Range: 1/1/02 - 7/26/14
 
SHARE

PRINT THIS DATA

[ ← Previous Day ]
WEATHER ALMANAC - OCTOBER 15, 2013
[ Next Day → ]
[ °C ]   °F
Weather ElementAverageHighLow
Temperature69.1 °F82 °F (1:53 pm)55.9 °F (6:53 am)
Dewpoint30.2 °F37.9 °F (8:53 am)24.1 °F (4:53 pm)
Humidity25.6 %44 % (6:53 am)12 % (4:53 pm)
Barometer29.87 in29.92 in (11:53 pm)29.80 in (2:53 pm)
Wind Speed6 mph13.8 mph (4:53 pm)
Wind Gust19.6 mph (2:53 pm)
Weather ElementAverage
Visibility10 mi
Wind DirectionSSW (191.7 °)

Weather ElementTotal
Precipitation---
Cooling Degree Days4 (Base 65)
Growing Degree Days19 (Base 50)
Averaged from 23 records on October 15, 2013
WEATHER CONDITIONS BREAKOUT
WIND DIRECTION BREAKOUT
WEATHER BY HOUR - OCTOBER 15, 2013
[ °C ]   °F
Local TimeTemperatureDewpointHumidityBarometerVisibilityWind DirectionWind SpeedGust SpeedPrecipitationEventsConditions
1:53 AM60.1 °F30.9 °F33 %29.90 in10.0 miCalmPartly Cloudy
2:53 AM57.9 °F30.9 °F36 %29.88 in10.0 miSSE (160°)4.6 mphPartly Cloudy
3:53 AM57.0 °F30.9 °F37 %29.88 in10.0 miSE (130°)6.9 mphPartly Cloudy
4:53 AM57.0 °F33.1 °F40 %29.88 in10.0 miSE (130°)6.9 mphClear
5:53 AM57.0 °F33.1 °F40 %29.89 in10.0 miSE (130°)4.6 mphMostly Cloudy
6:53 AM55.9 °F34.0 °F44 %29.90 in10.0 miSSE (160°)6.9 mphClear
7:53 AM60.1 °F36.0 °F41 %29.91 in10.0 miSSE (160°)9.2 mphClear
8:53 AM66.0 °F37.9 °F36 %29.91 in10.0 miSouth (170°)4.6 mphClear
9:53 AM72.0 °F36.0 °F27 %29.90 in10.0 miCalmClear
10:53 AM75.9 °F36.0 °F23 %29.88 in10.0 miWest (270°)3.5 mphClear
11:53 AM78.1 °F37.9 °F24 %29.86 in10.0 miVariable3.5 mphClear
12:53 PM81.0 °F32.0 °F17 %29.82 in10.0 miCalmClear
1:53 PM82.0 °F30.9 °F16 %29.81 in10.0 miNW (320°)8.1 mph16.1 mphClear
2:53 PM82.0 °F28.9 °F14 %29.80 in10.0 miWNW (300°)10.4 mph19.6 mphClear
3:53 PM82.0 °F26.1 °F13 %29.80 in10.0 miWNW (300°)11.5 mphClear
4:53 PM81.0 °F24.1 °F12 %29.80 in10.0 miWNW (300°)13.8 mphClear
5:53 PM78.1 °F25.0 °F14 %29.81 in10.0 miWNW (300°)9.2 mphClear
6:53 PM73.9 °F26.1 °F17 %29.85 in10.0 miNNW (330°)8.1 mphClear
7:53 PM72.0 °F25.0 °F17 %29.87 in10.0 miNW (310°)6.9 mphClear
8:53 PM70.0 °F25.0 °F18 %29.89 in10.0 miWNW (300°)5.8 mphClear
9:53 PM64.0 °F26.1 °F24 %29.91 in10.0 miWest (260°)3.5 mphClear
10:53 PM64.0 °F24.1 °F22 %29.91 in10.0 miSSW (200°)5.8 mphClear
11:53 PM62.1 °F24.1 °F23 %29.92 in10.0 miSouth (180°)4.6 mphClear
Hourly data recorded from KTUS, located miles away from Tucson, Arizona







STORIES FROM OUR PARTNERS